Wind_Speed
3 2 2 2 1 1 1 1 1 1 1 0 0 0 1 0 1 1 1 2 2 2 3 3 3 3 2 2 3 3 3 3 4 4 4 4 4 4 4 4 3 3 3
4 4 4 3 3 3 2 2 2 2 2 1 1 1 1 1 1 1 1 2 2 2 3 3 3 3 3 3 3 3 3 3 4 5 5 5 4 4 5 5 5 4 4
6 5 5 5 4 4 3 4 3 3 2 2 2 2 2 2 2 2 2 2 3 3 3 3 3 3 4 4 3 3 4 4 4 5 5 5 5 5 5 5 5 5 5
7 7 7 6 6 6 5 5 5 5 4 3 3 3 3 3 3 3 3 3 3 3 4 4 4 4 4 4 4 4 4 4 5 5 5 5 5 5 5 5 6 6 6
9 9 9 8 8 8 7 6 7 7 6 5 5 4 4 4 3 4 4 4 4 4 4 4 4 4 5 5 5 5 5 5 5 5 5 5 5 5 5 6 6 7 7
10 10 11 11 10 10 9 8 8 8 8 7 6 6 6 5 4 5 5 5 5 5 5 5 5 5 5 6 6 6 6 6 6 6 6 6 6 6 7 7 7 8 8
11 11 12 12 12 12 11 10 10 10 10 9 8 7 7 7 6 6 6 6 6 6 6 6 6 7 7 7 7 7 7 7 7 7 7 7 7 7 8 9 9 9 9
13 13 14 14 13 13 13 12 12 11 11 11 10 9 9 8 8 8 8 8 8 8 8 8 8 9 8 8 8 8 8 8 8 8 8 8 9 9 10 10 10 11 11
14 15 15 15 15 14 14 14 13 13 13 13 12 12 11 11 10 10 10 10 10 10 10 10 10 10 10 10 10 10 10 10 10 11 11 11 11 11 12 12 13 13 13
14 14 14 15 15 16 16 16 16 15 15 14 14 14 14 14 13 13 13 12 12 12 12 12 12 12 12 13 12 12 12 12 12 13 13 13 13 14 15 15 15 15 15
13 14 14 14 15 16 17 17 17 18 17 17 16 16 16 16 16 16 15 15 15 14 14 14 14 15 15 15 15 15 15 15 16 16 16 16 16 17 17 18 17 17 17
12 13 13 15 16 16 17 17 18 19 19 18 18 18 18 18 18 18 18 17 17 17 17 17 17 17 17 17 17 18 18 19 19 19 19 19 19 19 20 20 20 20 20
12 13 13 14 15 16 17 17 18 19 20 20 20 20 20 20 20 19 20 20 20 20 19 19 18 19 19 20 20 20 20 21 22 22 22 21 22 22 23 23 23 23 23
13 14 14 15 15 16 17 18 19 20 20 21 21 21 21 21 21 21 21 21 21 21 21 21 20 20 20 21 21 22 22 23 24 25 24 24 24 25 26 26 26 26 26
12 13 14 16 16 16 17 18 19 20 21 21 22 22 22 23 23 23 22 22 23 23 23 23 22 22 23 22 23 23 24 24 25 26 26 26 26 27 27 27 28 28 29
13 13 15 16 16 16 17 17 18 19 21 21 22 23 23 23 23 23 24 23 23 24 24 25 25 24 25 25 25 26 27 27 27 28 29 29 29 30 30 30 30 30 31
12 13 15 16 16 17 18 18 19 20 21 21 22 23 24 23 23 24 24 24 25 25 25 26 27 27 28 28 28 29 29 29 29 30 31 32 32 33 33 33 33 33 34
12 14 14 14 15 17 18 19 20 20 21 22 22 22 23 24 24 24 24 25 26 26 26 27 27 28 29 30 30 30 30 31 31 32 32 33 34 34 35 35 36 36 36
13 13 13 14 15 16 17 18 19 20 21 22 22 22 23 23 23 24 24 26 26 27 27 28 28 29 29 29 30 32 32 32 33 34 35 36 36 37 38 39 39 39 39
12 12 12 13 14 15 16 17 18 19 19 20 21 22 22 23 24 24 26 27 28 29 29 29 29 30 30 30 32 33 33 34 35 36 36 37 38 39 40 41 41 41 41
13 13 13 14 14 15 15 16 16 18 18 19 20 21 23 23 24 25 26 27 29 29 29 29 29 30 31 32 33 34 34 34 35 36 37 38 39 40 41 42 43 42 42
14 14 14 14 14 14 14 15 15 16 17 18 19 21 22 23 24 26 27 28 29 29 29 29 29 30 32 33 33 33 34 34 36 37 38 39 40 41 42 42 42 43 44
13 13 14 15 15 15 14 15 15 16 17 18 19 21 23 24 25 26 26 27 28 28 29 30 31 31 33 34 35 35 35 35 36 38 39 39 40 41 41 41 42 43 43
13 13 12 13 12 12 12 13 15 16 17 18 19 21 22 23 25 25 26 27 28 29 30 31 31 32 34 35 35 36 36 37 38 38 38 38 38 38 39 39 40 42 43
12 11 12 12 13 13 14 14 16 17 18 19 21 21 22 23 24 26 27 28 29 30 31 31 33 34 35 34 34 34 36 37 37 37 37 38 38 38 40 41 41 42 43
12 13 13 13 14 15 15 15 17 18 19 20 20 21 22 23 23 25 26 27 29 31 31 32 33 33 34 34 34 34 35 36 37 37 38 38 39 40 41 41 42 43 44
Wind_Direction
237 250 248 242 234 208 196 187 198 203 205 225 247 167 113 82 37 27 12 355 349 347 341 341 343 342 336 318 307 302 290 280 280 287 287 289 281 263 262 265 275 271 277
248 256 260 255 250 230 217 205 213 223 224 221 234 239 242 270 292 299 332 331 320 330 331 330 330 330 329 323 316 306 295 290 287 290 290 287 280 273 267 267 269 266 277
251 253 255 251 251 247 237 230 229 228 222 226 239 243 249 262 271 277 300 310 302 308 316 322 321 318 318 318 311 302 297 294 289 290 288 284 279 273 272 270 268 265 270
253 251 250 252 252 254 255 247 235 230 230 234 245 251 259 264 264 271 287 297 295 299 304 309 312 308 309 309 304 296 289 291 289 285 284 284 278 270 267 268 267 269 272
251 250 253 255 254 255 257 257 247 240 238 238 243 253 265 268 264 267 278 288 293 296 297 298 304 305 302 304 304 297 288 286 290 285 278 278 273 272 274 276 269 270 273
252 250 251 252 251 253 253 253 252 246 243 243 246 254 262 264 272 272 271 277 284 286 289 289 293 297 298 299 299 294 288 280 286 285 276 272 270 272 276 280 278 274 275
256 253 249 251 250 249 248 248 251 250 246 245 248 255 262 262 267 270 271 274 277 280 283 284 283 285 289 292 292 290 285 275 279 280 274 270 271 273 275 276 277 277 276
256 251 251 250 253 250 246 246 248 249 248 247 248 251 259 263 263 268 272 275 279 279 278 277 277 279 281 284 287 288 284 280 277 279 276 273 275 277 278 278 278 277 278
250 253 252 249 251 251 246 245 247 248 249 248 248 252 257 262 264 266 270 275 277 278 276 272 273 276 277 278 281 281 279 279 279 278 277 276 277 277 279 282 283 282 280
248 247 248 248 248 247 245 244 245 247 248 251 252 254 258 261 262 265 268 270 275 278 276 271 269 273 274 275 277 276 275 274 276 278 278 277 277 277 277 279 282 282 280
250 249 249 250 250 248 245 245 247 248 249 251 253 255 259 261 263 264 265 268 271 275 276 273 271 273 273 273 275 274 273 273 275 276 277 277 277 277 277 277 279 279 279
252 252 251 250 250 251 249 248 248 248 250 251 253 254 258 261 263 264 264 267 269 272 274 273 271 272 274 274 276 275 273 274 274 274 274 275 276 278 279 278 277 278 277
253 255 254 253 253 253 251 250 250 250 252 253 254 255 257 259 261 264 265 267 268 271 272 273 272 272 273 274 275 276 274 275 275 275 274 274 275 277 277 276 276 277 277
256 259 256 257 257 256 254 254 255 254 253 253 256 258 259 260 261 263 265 267 268 270 272 273 274 273 274 273 275 276 276 275 276 276 276 275 275 277 277 276 276 276 275
259 261 258 259 261 260 259 259 257 257 256 256 258 259 260 259 261 262 265 268 268 269 271 272 273 275 277 276 275 276 276 276 277 278 277 276 275 276 277 277 277 275 274
263 265 264 262 262 261 258 259 260 258 256 257 259 260 261 262 262 263 264 267 268 270 270 271 273 273 275 275 276 277 277 277 277 277 277 277 277 275 276 276 277 277 276
265 267 268 263 263 263 261 260 258 258 257 257 259 261 262 262 262 263 264 267 269 271 272 271 271 272 273 274 276 277 279 279 278 279 278 278 277 276 277 276 275 275 276
270 271 270 268 268 267 264 261 261 260 258 258 260 262 263 263 263 263 266 268 270 271 273 273 273 274 275 277 278 279 278 278 279 279 279 278 277 276 277 277 277 276 277
275 274 272 274 273 271 267 264 263 262 261 259 260 263 263 265 265 266 267 269 272 273 274 273 273 274 275 277 279 279 278 279 279 279 279 279 277 277 277 277 276 276 276
282 276 275 276 276 274 270 268 265 264 264 261 262 263 265 267 267 268 269 271 272 274 275 274 274 275 276 277 279 279 279 279 280 280 281 280 279 279 278 277 277 276 276
287 284 280 279 279 278 274 270 271 268 267 265 265 267 268 271 271 271 272 274 275 275 276 278 278 277 278 280 281 282 281 281 280 280 281 280 280 280 279 278 278 276 276
287 283 286 282 282 280 279 274 273 272 271 270 272 272 272 273 274 274 275 277 277 277 278 280 279 279 280 282 283 283 282 282 282 282 281 280 280 280 280 279 279 278 278
291 285 286 283 283 281 279 276 277 278 275 274 275 276 277 276 277 279 279 279 278 278 278 278 279 281 282 283 284 284 284 283 282 283 282 281 281 281 282 281 280 279 278
289 290 292 291 288 286 283 281 282 284 283 280 281 282 282 280 279 278 280 280 279 280 282 282 282 284 284 285 284 284 283 284 285 284 284 283 283 283 283 283 284 282 281
295 301 303 297 292 292 291 288 288 288 287 286 286 286 286 285 283 282 282 282 282 283 284 285 285 285 285 285 285 284 285 285 285 285 284 284 285 286 286 286 286 285 284
294 299 304 301 294 294 295 293 291 290 289 289 289 288 289 289 287 287 287 285 285 286 286 285 285 285 286 287 287 287 286 286 286 285 286 288 288 288 288 287 286 286 286
Height
5901 5902 5902 5902 5903 5903 5904 5904 5905 5905 5905 5906 5906 5906 5906 5906 5907 5907 5907 5907 5907 5907 5907 5907 5906 5906 5906 5905 5905 5905 5906 5906 5906 5906 5906 5906 5906 5906 5907 5907 5907 5907 5907
5900 5901 5901 5902 5902 5903 5903 5904 5904 5905 5905 5905 5906 5906 5906 5906 5907 5907 5907 5907 5907 5907 5907 5906 5906 5906 5906 5905 5905 5905 5905 5905 5905 5905 5905 5905 5905 5906 5906 5906 5906 5906 5906
5899 5900 5900 5901 5901 5902 5903 5903 5904 5904 5904 5905 5905 5906 5906 5906 5906 5906 5907 5907 5907 5907 5906 5906 5906 5906 5905 5905 5905 5905 5905 5905 5905 5905 5905 5905 5904 5905 5905 5905 5905 5905 5906
5897 5898 5899 5900 5900 5901 5902 5902 5903 5904 5904 5904 5905 5905 5905 5906 5906 5906 5906 5906 5906 5906 5906 5906 5906 5905 5905 5905 5904 5904 5904 5904 5904 5904 5904 5904 5904 5904 5904 5904 5904 5904 5905
5895 5896 5897 5898 5899 5900 5900 5901 5902 5903 5904 5904 5904 5904 5905 5905 5905 5905 5906 5906 5906 5906 5906 5905 5905 5905 5905 5904 5904 5904 5904 5903 5903 5903 5903 5903 5903 5903 5903 5903 5903 5903 5903
5893 5894 5895 5896 5897 5898 5899 5900 5901 5902 5902 5903 5903 5903 5904 5904 5904 5904 5905 5905 5905 5905 5905 5905 5905 5904 5904 5904 5903 5903 5903 5903 5902 5902 5902 5902 5902 5902 5902 5902 5902 5902 5902
5890 5891 5892 5893 5895 5896 5897 5898 5899 5900 5901 5901 5902 5902 5903 5903 5903 5903 5904 5904 5904 5904 5904 5904 5904 5903 5903 5903 5902 5902 5902 5901 5901 5901 5901 5901 5901 5900 5900 5900 5900 5900 5900
5888 5888 5890 5891 5892 5893 5895 5896 5897 5898 5899 5899 5900 5900 5901 5902 5902 5902 5902 5902 5902 5902 5902 5902 5902 5902 5902 5901 5901 5901 5900 5900 5900 5900 5899 5899 5899 5899 5899 5898 5898 5897 5897
5885 5885 5887 5888 5889 5891 5892 5893 5894 5896 5896 5897 5898 5899 5899 5900 5900 5900 5900 5900 5900 5900 5900 5900 5900 5900 5900 5900 5899 5899 5899 5898 5898 5898 5897 5897 5897 5897 5897 5896 5896 5895 5895
5881 5882 5883 5884 5886 5888 5889 5890 5891 5892 5893 5894 5895 5896 5897 5897 5897 5898 5898 5898 5898 5898 5898 5898 5898 5898 5897 5897 5897 5897 5896 5896 5896 5895 5895 5894 5894 5894 5894 5893 5893 5892 5892
5878 5879 5880 5881 5883 5884 5885 5887 5888 5889 5890 5891 5892 5893 5893 5894 5894 5895 5895 5895 5895 5895 5895 5895 5895 5894 5894 5894 5894 5894 5893 5893 5892 5892 5892 5891 5891 5890 5890 5890 5889 5888 5888
5875 5876 5877 5878 5879 5880 5881 5883 5884 5885 5886 5887 5888 5889 5890 5890 5890 5891 5891 5891 5891 5892 5892 5891 5891 5891 5890 5890 5890 5889 5889 5889 5889 5888 5888 5887 5887 5886 5886 5885 5885 5884 5884
5873 5873 5874 5875 5876 5877 5878 5879 5880 5881 5882 5883 5884 5885 5885 5886 5887 5887 5887 5887 5887 5888 5887 5887 5887 5886 5886 5886 5885 5885 5884 5884 5884 5883 5883 5882 5882 5881 5881 5880 5880 5879 5879
5870 5870 5871 5872 5873 5873 5874 5875 5876 5877 5878 5879 5880 5880 5881 5882 5882 5882 5883 5883 5883 5883 5883 5883 5882 5882 5881 5881 5880 5880 5879 5879 5878 5878 5877 5877 5876 5876 5875 5874 5873 5873 5872
5867 5867 5867 5868 5869 5869 5870 5871 5872 5872 5873 5874 5875 5875 5876 5877 5877 5878 5878 5878 5878 5878 5878 5877 5877 5877 5876 5876 5875 5874 5874 5873 5872 5871 5871 5870 5869 5869 5868 5867 5866 5866 5865
5863 5864 5864 5864 5865 5865 5866 5866 5867 5867 5868 5869 5870 5870 5871 5872 5872 5872 5873 5873 5873 5873 5873 5872 5871 5871 5870 5870 5869 5868 5867 5867 5866 5865 5864 5863 5862 5862 5861 5860 5859 5858 5857
5860 5860 5860 5860 5860 5860 5861 5861 5862 5862 5863 5864 5864 5865 5865 5866 5866 5867 5867 5867 5867 5867 5867 5866 5866 5865 5864 5863 5862 5861 5860 5859 5858 5857 5856 5855 5854 5853 5852 5851 5850 5849 5848
5857 5857 5857 5856 5856 5856 5856 5856 5856 5857 5857 5858 5859 5859 5860 5860 5860 5861 5861 5861 5861 5861 5861 5860 5859 5858 5857 5856 5855 5854 5853 5851 5850 5849 5848 5847 5846 5844 5843 5842 5841 5840 5839
5854 5853 5853 5853 5852 5851 5851 5851 5851 5852 5852 5853 5853 5854 5854 5854 5855 5855 5855 5855 5855 5854 5853 5853 5852 5851 5850 5849 5848 5846 5845 5843 5842 5840 5839 5838 5836 5835 5834 5832 5831 5830 5829
5851 5850 5850 5849 5848 5847 5847 5847 5847 5847 5847 5847 5848 5848 5849 5849 5849 5849 5849 5848 5848 5847 5846 5845 5844 5843 5842 5840 5839 5838 5836 5835 5833 5832 5830 5828 5826 5825 5823 5822 5821 5819 5818
5848 5847 5847 5846 5845 5844 5843 5843 5843 5842 5842 5842 5842 5843 5843 5842 5842 5842 5842 5841 5840 5839 5838 5837 5836 5835 5834 5832 5830 5829 5827 5826 5824 5822 5820 5818 5816 5814 5813 5811 5809 5808 5807
5845 5844 5843 5843 5842 5841 5840 5839 5839 5838 5838 5838 5837 5837 5837 5837 5836 5836 5835 5834 5833 5832 5831 5830 5828 5827 5826 5824 5822 5820 5818 5816 5815 5813 5810 5808 5805 5803 5801 5800 5798 5796 5795
5841 5840 5840 5839 5838 5837 5836 5836 5835 5835 5834 5833 5833 5832 5832 5831 5830 5829 5829 5827 5826 5824 5823 5822 5821 5819 5817 5815 5813 5811 5809 5806 5804 5802 5799 5797 5794 5792 5790 5788 5786 5784 5782
5839 5837 5836 5835 5834 5833 5832 5832 5831 5831 5829 5828 5828 5827 5826 5825 5824 5823 5822 5820 5818 5817 5815 5814 5812 5810 5808 5806 5804 5801 5799 5796 5794 5791 5789 5786 5784 5781 5779 5777 5775 5772 5770
5836 5834 5833 5831 5830 5829 5829 5828 5827 5826 5825 5824 5823 5821 5820 5818 5817 5816 5814 5813 5811 5809 5807 5805 5803 5801 5799 5796 5794 5792 5789 5787 5784 5781 5779 5776 5774 5771 5768 5765 5763 5760 5757
5833 5832 5830 5828 5827 5826 5825 5824 5823 5822 5820 5819 5817 5816 5814 5812 5811 5809 5807 5805 5803 5801 5799 5797 5794 5792 5790 5787 5785 5782 5780 5777 5774 5771 5768 5766 5763 5760 5757 5754 5750 5747 5744